Simultaneous Nadir Overpasses (SNOs) Predictions

Prediction of SNOs between GOES-17 and TERRA Satellite Orbit:

Table of predicted SNOs for the next 14.0 days since TLE Epoch: 8/20/2022
Index Date Time (GOES-17) GOES-17 Lat,Lon TERRA Lat,Lon Distance(km) Time Diff (sec)
1 08/21/2022 19:14:18 -0.04,-137.32 -0.70,-134.22 352.23 80
2 08/22/2022 07:33:02 0.04,-137.32 -0.38,-139.42 238.81 80
3 08/24/2022 07:23:27 0.04,-137.32 0.22,-136.46 97.20 80
4 08/24/2022 19:42:02 -0.05,-137.32 0.85,-141.63 489.17 80
5 08/26/2022 07:11:12 0.04,-137.32 0.83,-133.51 432.74 80
6 08/26/2022 19:29:47 -0.05,-137.32 0.24,-138.67 153.70 80
7 08/28/2022 19:20:12 -0.05,-137.31 -0.38,-135.72 181.47 80
8 08/29/2022 07:38:55 0.05,-137.31 -0.69,-140.92 409.76 80
9 08/31/2022 07:26:40 0.05,-137.29 -0.12,-137.95 75.25 80
10 09/02/2022 07:17:05 0.04,-137.27 0.52,-135.00 258.54 80
11 09/02/2022 19:35:39 -0.04,-137.27 0.55,-140.16 328.60 80
